This demonstration page uses our WeatherBlox Daily Observations layout. Learn more.

Left ArrowRight Arrow

Hourly Observations for March 20, 2019

Temp ( °F °C ) Dew Point ( °F °C ) Humidity (%) Winds ( mph kmh ) Pressure ( in mb ) Visibility ( mi km ) Precip ( " mm )
12:57 am 00:57 Cloudy 35 1.7 33 0.6 93 93 NW 8 13 30.30 1026 10 16 0.00 0.00
1:57 am 01:57 Mostly Cloudy 33 0.6 31 -0.6 92 92 NW 6 9 30.28 1026 10 16 0.00 0.00
2:57 am 02:57 Clear 30 -1.1 28 -2.2 92 92 WNW 6 9 30.28 1026 8 13 0.00 0.00
3:57 am 03:57 Clear 30 -1.1 28 -2.2 92 92 WNW 7 11 30.26 1025 8 13 0.00 0.00
4:57 am 04:57 Clear 29 -1.7 28 -2.2 96 96 WNW 7 11 30.24 1024 10 16 0.00 0.00
5:57 am 05:57 Clear 30 -1.1 28 -2.2 92 92 WNW 8 13 30.23 1024 10 16 0.00 0.00
6:57 am 06:57 Clear 30 -1.1 28 -2.2 92 92 W 10 17 30.24 1024 10 16 0.00 0.00
7:57 am 07:57 Sunny 30 -1.1 28 -2.2 92 92 W 7 11 30.24 1024 10 16 0.00 0.00
8:52 am 08:52 Mostly Sunny 34 1 28 -2 81 81 WNW 10 17 30.27 1025 10 16 0.00 0.00
8:57 am 08:57 undefined 34 1.1 28 -2.2 79 79 WNW 9 15 30.23 1024 10 16 0.00 0.00
11:57 am 11:57 Sunny 46 7.8 34 1.1 63 63 WNW 15 24 30.18 1022 10 16 0.00 0.00
12:57 pm 12:57 Sunny 50 10 33 0.6 52 52 NW 15 24 30.16 1021 10 16 0.00 0.00
1:33 pm 13:33 Mostly Sunny 54 12 34 1 47 47 WNW 16 26 30.10 1019 10 16 0.00 0.00
1:57 pm 13:57 Sunny 55 12.8 32 0 42 42 WNW 15 24 30.13 1020 10 16 0.00 0.00
2:57 pm 14:57 Sunny 57 13.9 35 1.7 44 44 NW 14 22 30.11 1020 10 16 0.00 0.00
4:57 pm 16:57 Sunny 58 14.4 36 2.2 44 44 N 18 30 30.12 1020 10 16 0.00 0.00
5:57 pm 17:57 Sunny 56 13.3 36 2.2 47 47 N 16 26 30.13 1020 10 16 0.00 0.00
6:57 pm 18:57 Sunny 54 12.2 37 2.8 53 53 N 15 24 30.15 1021 10 16 0.00 0.00
7:57 pm 19:57 Clear 48 8.9 38 3.3 68 68 N 10 17 30.19 1022 10 16 0.00 0.00
8:57 pm 20:57 Clear 43 6.1 36 2.2 76 76 N 10 17 30.21 1023 10 16 0.00 0.00
9:57 pm 21:57 Clear 43 6.1 35 1.7 74 74 N 12 19 30.23 1024 10 16 0.00 0.00
10:57 pm 22:57 Clear 39 3.9 34 1.1 82 82 N 12 19 30.24 1024 10 16 0.00 0.00
11:57 pm 23:57 Clear 36 2.2 32 0 86 86 WNW 5 7 30.26 1025 10 16 0.00 0.00

Powered by AerisWeather